Weather in Mirotinskiy

Russia / Tula Oblast     54°37′51″N   37°42′14″E
temp.,
°C
wind,
m/s
gust,
m/s
humid.,
%
clouds,
%
prec.,
mm/h
press.,
hPa
HPBL,
m
13 april, tue
tue1300:00+10ese51490100 0.0 1026292
03:00+9se4128856 0.0 1026233
06:00+8sse41277100 0.0 1026202
09:00+13sse5105763 0.0 1025322
12:00+18sse694390 0.0 1025699
15:00+20sse693315 0.0 10231934
18:00+18se494475 0.0 1022265
21:00+12se413553 0.0 1022221
14 april, wed
wed1400:00+11sse515605 0.0 1022294
03:00+9sse4126764 0.0 1022208
06:00+8sse3978100 0.0 1021137
09:00+12sse4764100 0.0 1021283
12:00+16sse5842100 0.0 1020772
15:00+18sse5734100 0.0 10181403
18:00+16se354441 0.0 101796
21:00+11se3456100 0.0 101845
15 april, thu
thu1500:00+10se3358100 0.0 101729
03:00+9ese226298 0.0 101717
06:00+9ese3568100 0.0 101670
09:00+12se4760100 0.0 1016283
12:00+14ssw3459100 0.0 1017711
15:00+16ene335297 0.0 10161168
18:00+15e355599 0.1 1015192
21:00+11ene226784 0.1 101615
16 april, fri
fri1600:00+9ne357925 0.0 101684
03:00+8ene388738 0.1 1016181
06:00+8ne5119137 0.4 1017327
09:00+11ene697892 0.5 1017497
12:00+14e6867100 0.1 1017814
15:00+15ene6862100 0.2 10171269
18:00+13ene5972100 3.2 1017248
21:00+11ene81487100 7.4 1019709
17 april, sat
sat1700:00+10ene61293100 3.1 1019434
03:00+8ene5119181 3.7 1020408
06:00+7ne5119492 0.0 1021405
09:00+9ene7108696 0.0 1022513
12:00+13ene710705 0.0 1022816
15:00+15ene8106318 0.0 10221202
18:00+14ene7116582 0.0 10231059
21:00+10ene61370100 0.0 1025506